STARLINK-32937 (63148 NORAD) Tracking and Keplerian Element Data

This shows tracking and keplerian element data for the satellite.

Feedback or suggestion? Click here.




ElementValue
Catalog63148
NameSTARLINK-32937
Epoch Orbit4508
Epoch Day353.39892942
Epoch Year2025
RAAN109.6059
Inclination43.0012
Eccentricity0.0001411
Argument of Perigee238.6718
Mean Anonmoly121.3996
Mean Motion15.27595085
Decay Rate0.00029654
L11 63148U 25043S 25353.39892942 .00029654 00000+0 10823-2 0 9991
L22 63148 43.0012 109.6059 0001411 238.6718 121.3996 15.27595085 45081



Live tracking and technical data element details for STARLINK-32937 (NORAD 63148). STARLINK-32937 can be tracked NOW for your location showing map with azimuth and elevation plus other details from your city location.







IsCatalogInMostPopularTable: catalog: 63148, numindb: 2
Update: records affected: 1



GetName: 63148 STARLINK-32937

Hit Count: updated at: Mon, 09 Feb 2026 08:44:20 GMT